When you browse on this site, cookies collect data to enhance your experience and personalize the content and advertising you see.
Visit our Privacy Policy to learn more. By continuing to use the site, you agree to this use of cookies and data.
  • In Austria
  • List of Countries
  • For 7 days
  • Water Temperature
  • Weather Map
  • News
  • Weather Widgets
  • user-avatar
    Login

    Hourly Weather Mercaderes

    Today, 20 November, Wednesday

    Time Temperature Precipitation Wind Pressure Humidity
    00:00 +18°C° 1.3 mm 0 mps 665 mmHg 97%
    01:00 +18°C° 1.3 mm 0 mps 665 mmHg 97%
    02:00 +18°C° 0.4 mm 0 mps 665 mmHg 97%
    03:00 +18°C° 0.4 mm 0 mps 664 mmHg 97%
    04:00 +18°C° 0.4 mm 0 mps 664 mmHg 96%
    05:00 +18°C° 0.1 mm 0 mps 665 mmHg 95%
    06:00 +18°C° 0.1 mm 0 mps 665 mmHg 94%
    07:00 +19°C° 0.1 mm 0 mps 665 mmHg 93%
    08:00 +20°C° 0.1 mm 0 mps 666 mmHg 89%
    09:00 +23°C° 0.1 mm 1 mps 667 mmHg 86%
    10:00 +25°C° 0.1 mm 1 mps 667 mmHg 82%
    11:00 +25°C° 0.7 mm 1 mps 667 mmHg 80%
    12:00 +26°C° 0.7 mm 1 mps 666 mmHg 79%
    13:00 +26°C° 0.7 mm 1 mps 666 mmHg 78%
    14:00 +25°C° 1.3 mm 1 mps 665 mmHg 82%
    15:00 +25°C° 1.3 mm 1 mps 664 mmHg 85%
    16:00 +24°C° 1.3 mm 1 mps 664 mmHg 89%
    17:00 +23°C° 1.7 mm 1 mps 664 mmHg 91%
    18:00 +22°C° 1.7 mm 1 mps 664 mmHg 93%
    19:00 +21°C° 1.7 mm 1 mps 664 mmHg 96%
    20:00 +19°C° 1.6 mm 0 mps 665 mmHg 96%
    21:00 +19°C° 1.6 mm 0 mps 665 mmHg 96%
    22:00 +18°C° 1.6 mm 0 mps 665 mmHg 97%
    23:00 +18°C° 0.6 mm 0 mps 665 mmHg 97%

    Tomorrow, 21 November, Thursday

    Time Temperature Precipitation Wind Pressure Humidity
    00:00 +18°C° 0.6 mm 0 mps 665 mmHg 97%
    01:00 +18°C° 0.6 mm 0 mps 664 mmHg 97%
    02:00 +18°C° 0.2 mm 0 mps 664 mmHg 97%
    03:00 +18°C° 0.2 mm 0 mps 664 mmHg 97%
    04:00 +18°C° 0.2 mm 0 mps 664 mmHg 96%
    05:00 +18°C° 0 mm 0 mps 664 mmHg 96%
    06:00 +18°C° 0 mm 0 mps 665 mmHg 95%
    07:00 +19°C° 0 mm 0 mps 665 mmHg 95%
    08:00 +20°C° 0 mm 0 mps 665 mmHg 90%
    09:00 +21°C° 0 mm 0 mps 666 mmHg 85%
    10:00 +25°C° 0 mm 1 mps 666 mmHg 81%
    11:00 +25°C° 0.5 mm 1 mps 666 mmHg 78%
    12:00 +26°C° 0.5 mm 1 mps 665 mmHg 76%
    13:00 +27°C° 0.5 mm 1 mps 665 mmHg 73%
    14:00 +26°C° 1.3 mm 1 mps 664 mmHg 78%
    15:00 +25°C° 1.3 mm 2 mps 664 mmHg 82%
    16:00 +24°C° 1.3 mm 2 mps 663 mmHg 86%
    17:00 +23°C° 1.5 mm 1 mps 663 mmHg 89%
    18:00 +22°C° 1.5 mm 1 mps 663 mmHg 92%
    19:00 +21°C° 1.5 mm 1 mps 663 mmHg 95%
    20:00 +19°C° 3.6 mm 0 mps 664 mmHg 95%
    21:00 +19°C° 3.6 mm 0 mps 664 mmHg 95%
    22:00 +18°C° 3.6 mm 0 mps 665 mmHg 96%
    23:00 +18°C° 1.2 mm 0 mps 665 mmHg 96%

    Day after tomorrow, 22 November, Friday

    Time Temperature Precipitation Wind Pressure Humidity
    00:00 +18°C° 1.2 mm 0 mps 664 mmHg 96%
    01:00 +18°C° 1.2 mm 0 mps 664 mmHg 96%
    02:00 +18°C° 1.2 mm 0 mps 664 mmHg 97%
    03:00 +18°C° 1.2 mm 0 mps 663 mmHg 97%
    04:00 +18°C° 1.2 mm 0 mps 663 mmHg 98%
    05:00 +18°C° 1.9 mm 0 mps 663 mmHg 97%
    06:00 +18°C° 1.9 mm 0 mps 664 mmHg 97%
    07:00 +18°C° 1.9 mm 0 mps 664 mmHg 97%
    08:00 +19°C° 0.5 mm 0 mps 665 mmHg 95%
    09:00 +21°C° 0.5 mm 1 mps 665 mmHg 92%
    10:00 +22°C° 0.5 mm 1 mps 665 mmHg 90%
    11:00 +23°C° 0.2 mm 1 mps 665 mmHg 85%
    12:00 +24°C° 0.2 mm 1 mps 665 mmHg 80%
    13:00 +25°C° 0.2 mm 2 mps 665 mmHg 75%
    14:00 +25°C° 0.8 mm 2 mps 664 mmHg 79%
    15:00 +24°C° 0.8 mm 2 mps 664 mmHg 83%
    16:00 +23°C° 0.8 mm 2 mps 663 mmHg 87%
    17:00 +22°C° 0.6 mm 1 mps 663 mmHg 90%
    18:00 +21°C° 0.6 mm 1 mps 663 mmHg 93%
    19:00 +18°C° 0.6 mm 0 mps 664 mmHg 96%
    20:00 +18°C° 0.1 mm 0 mps 664 mmHg 96%
    21:00 +18°C° 0.1 mm 0 mps 664 mmHg 96%
    22:00 +18°C° 0.1 mm 0 mps 665 mmHg 96%
    23:00 +17°C° 0 mm 0 mps 664 mmHg 96%

    23 November, Saturday

    Time Temperature Precipitation Wind Pressure Humidity
    00:00 +17°C° 0 mm 0 mps 664 mmHg 96%
    01:00 +17°C° 0 mm 0 mps 664 mmHg 95%
    02:00 +17°C° 0 mm 0 mps 663 mmHg 95%
    03:00 +17°C° 0 mm 0 mps 663 mmHg 95%
    04:00 +17°C° 0 mm 0 mps 663 mmHg 95%
    05:00 +18°C° 0 mm 0 mps 664 mmHg 94%
    06:00 +18°C° 0 mm 0 mps 664 mmHg 93%
    07:00 +18°C° 0 mm 0 mps 665 mmHg 92%
    08:00 +20°C° 0.1 mm 0 mps 665 mmHg 87%
    09:00 +23°C° 0.1 mm 1 mps 666 mmHg 81%
    10:00 +25°C° 0.1 mm 1 mps 666 mmHg 75%
    11:00 +26°C° 0.4 mm 1 mps 665 mmHg 74%
    12:00 +26°C° 0.4 mm 1 mps 665 mmHg 73%
    13:00 +27°C° 0.4 mm 1 mps 664 mmHg 72%
    14:00 +26°C° 1.1 mm 1 mps 664 mmHg 76%
    15:00 +25°C° 1.1 mm 2 mps 663 mmHg 81%
    16:00 +24°C° 1.1 mm 2 mps 663 mmHg 86%
    17:00 +23°C° 0.9 mm 1 mps 663 mmHg 89%
    18:00 +22°C° 0.9 mm 1 mps 663 mmHg 92%
    19:00 +19°C° 0.9 mm 0 mps 664 mmHg 96%
    20:00 +19°C° 0.4 mm 0 mps 664 mmHg 96%
    21:00 +19°C° 0.4 mm 0 mps 665 mmHg 96%
    22:00 +18°C° 0.4 mm 0 mps 665 mmHg 96%
    23:00 +18°C° 0.1 mm 0 mps 665 mmHg 97%

    24 November, Sunday

    Time Temperature Precipitation Wind Pressure Humidity
    00:00 +18°C° 0.1 mm 0 mps 664 mmHg 97%
    01:00 +18°C° 0.1 mm 0 mps 664 mmHg 97%
    02:00 +18°C° 0.1 mm 0 mps 664 mmHg 97%
    03:00 +18°C° 0.1 mm 0 mps 663 mmHg 97%
    04:00 +18°C° 0.1 mm 0 mps 663 mmHg 97%
    05:00 +18°C° 0 mm 0 mps 664 mmHg 96%
    06:00 +18°C° 0 mm 0 mps 664 mmHg 95%
    07:00 +18°C° 0 mm 0 mps 665 mmHg 95%
    08:00 +20°C° 0.1 mm 0 mps 665 mmHg 89%
    09:00 +23°C° 0.1 mm 1 mps 665 mmHg 84%
    10:00 +25°C° 0.1 mm 1 mps 666 mmHg 79%
    11:00 +26°C° 0.4 mm 1 mps 665 mmHg 78%
    12:00 +26°C° 0.4 mm 1 mps 665 mmHg 76%
    13:00 +27°C° 0.4 mm 1 mps 664 mmHg 74%
    14:00 +26°C° 1.1 mm 1 mps 663 mmHg 78%
    15:00 +25°C° 1.1 mm 1 mps 663 mmHg 82%
    16:00 +25°C° 1.1 mm 2 mps 662 mmHg 86%
    17:00 +23°C° 0.7 mm 1 mps 662 mmHg 89%
    18:00 +22°C° 0.7 mm 1 mps 663 mmHg 93%
    19:00 +21°C° 0.7 mm 1 mps 663 mmHg 96%
    20:00 +21°C° 0.1 mm 1 mps 663 mmHg 96%
    21:00 +18°C° 0.1 mm 0 mps 664 mmHg 96%
    22:00 +18°C° 0.1 mm 0 mps 664 mmHg 96%
    23:00 +18°C° 0.1 mm 0 mps 664 mmHg 96%

    25 November, Monday

    Time Temperature Precipitation Wind Pressure Humidity
    00:00 +18°C° 0.1 mm 0 mps 663 mmHg 97%
    01:00 +18°C° 0.1 mm 0 mps 663 mmHg 97%
    02:00 +18°C° 0.1 mm 0 mps 663 mmHg 97%
    03:00 +18°C° 0.1 mm 0 mps 663 mmHg 97%
    04:00 +18°C° 0.1 mm 0 mps 662 mmHg 97%
    05:00 +18°C° 0 mm 0 mps 663 mmHg 96%
    06:00 +18°C° 0 mm 0 mps 663 mmHg 95%
    07:00 +19°C° 0 mm 0 mps 664 mmHg 95%
    08:00 +20°C° 0 mm 0 mps 664 mmHg 90%
    09:00 +21°C° 0 mm 0 mps 664 mmHg 85%
    10:00 +25°C° 0 mm 1 mps 665 mmHg 81%
    11:00 +26°C° 0.2 mm 1 mps 664 mmHg 78%
    12:00 +26°C° 0.2 mm 1 mps 663 mmHg 75%
    13:00 +27°C° 0.2 mm 1 mps 663 mmHg 72%
    14:00 +26°C° 0.7 mm 1 mps 662 mmHg 75%
    15:00 +26°C° 0.7 mm 1 mps 662 mmHg 78%
    16:00 +25°C° 0.7 mm 1 mps 661 mmHg 81%
    17:00 +24°C° 0.9 mm 1 mps 661 mmHg 86%
    18:00 +23°C° 0.9 mm 1 mps 662 mmHg 91%
    19:00 +21°C° 0.9 mm 1 mps 662 mmHg 96%
    20:00 +21°C° 0.1 mm 1 mps 662 mmHg 96%
    21:00 +19°C° 0.1 mm 0 mps 663 mmHg 96%
    22:00 +19°C° 0.1 mm 0 mps 663 mmHg 96%
    23:00 +19°C° 0.2 mm 0 mps 663 mmHg 96%
    Show more